NOAA 16 DEB, 42385

Orbit data source: Space-Track

NOAA 16 DEB, 42385 is space debris in SSO originally from a launch on Thu, 21 Sep 2000 UTC launched from the Air Force Western Test Range (AFWTR). Debris objects in space refer to the collection of defunct objects orbiting the Earth. Examples of debris include non-operational satellites, rocket bodies, and fragments generated from explosions, collisions, or faulty payload assembly.

Loading next visibility...
Identifier
42385, 2000-055SD
Orbit
SSO
Country
Flag of USUS
Related business
Manufacturer
Unknown
Mission
Spacecraft
Bus & Motor
Unknown
Mass
Unknown
Launch date (UTC)
2000-09-21 (25 years ago)
Launch vehicle
Unknown
Launch site
Air Force Western Test Range (AFWTR)
Object type
Payload
Rocket body
Debris
Shape & HBR
Unknown shape, 0.1 m
Radar Cross Section
Small (<0.1 m²)

Expand to show TLE details & history
Last TLE update: 2 days ago

TLE from 2 days ago
0 NOAA 16 DEB
1 42385U 00055SD  25348.16104540  .00005870  00000-0  21278-2 0  9997
2 42385  98.6604  62.5245 0005735  41.7283 318.4338 14.33733983501107
Epoch: 2025-12-14T03:51Z
TLE epoch observation values (Epoch: 2025-12-14T03:51:54.322Z)
Latitude
-0.00001°
Longitude
-78.52978°
Altitude
779.141 km
Speed
7.466 km/s
True Right ascension
04h 10m 05s
True Declination
0° 00' 00"
Sunlit
Object was in full shadow at epoch
Visualization orbit readout
Latitude
Unknown
Longitude
Unknown
Altitude
Unknown
Speed
Unknown
Apparent Right ascension
Unknown
Apparent Declination
Unknown
Sunlit
N/A
Visualization observer readout
Local Sidereal Time
22:30:44
Azimuth
Unknown
Elevation
Unknown
Doppler factor
Unknown
Orbital elements
Apogee altitude
780.518 km
Perigee altitude
772.311 km
Semi-major axis
7,154.552 km
Eccentricity
0.00057
Inclination
98.6604°
RAAN
62.5245°
Arg. of periapsis
41.7283°
True anomaly
318.39017°
Mean anomaly
318.4338°
Eccentric anomaly
318.41199°
Mean motion
3.58649 °/min
Orbital period
100.38 mins
BSTAR
0.0021278
Loading maneuver chart data...
Computing Atmospheric mass density...
Loading historical data...
Loading historical data...
Loading historical data...
Loading historical data...
Loading historical data...
Loading historical data...
Loading historical data...

Documentation

Showing up to 5 results
|